Flag for Germany Weather past 2 weeks in Itzehoe, Schleswig-Holstein, Germany

Now
32 °F

Chilly.


Feels Like: 25 °F
Forecast: 27 / 31 °F
Wind: 8 mph from South

Location: Hohn

Current Time: Dec 26, 2014 at 4:47:20 PM

Latest Report: Dec 26, 2014 at 3:20 PM


Visibility: N/A

Pressure: 30.27 "Hg

Humidity: 80%

Dew point: 27 °F

Location of ItzehoeLocation

Historic Weather in Itzehoe — Graph

°F

Itzehoe temperature yesterday

Maximum temperature yesterday: 43 °F (at 2:20 AM)
Minimum temperature yesterday: 30 °F (at 11:20 PM)
Average temperature yesterday: 38 °F

Past Weeks' High & Low Weather Summary

 TemperatureHumidityPressure
High52 °F (Dec 18, 4:20 PM)100% (Dec 12, 9:20 AM)30.36 "Hg (Dec 12, 9:20 AM)
Low23 °F (Dec 26, 4:20 AM)70% (Dec 12, 11:20 PM)29.06 "Hg (Dec 12, 1:20 PM)
Average42 °F90%29.72 "Hg
* Reported Dec 11 3:02 PM — Dec 26 3:20 PM, Itzehoe, Weather by CustomWeather, © 2014

Note: Actual official high and low records may vary slightly from our data, if they occured in-between our weather recording intervals... More about our weather records

Advertising

Itzehoe weather history for previous 24 hours

 ConditionsComfort  
Time TempWeatherWind HumidityBarometerVisibility
3:20 PM
Dec 26
32 °FChilly.8 mph80%30.27 "HgN/A
2:20 PM32 °FChilly.7 mph80%30.27 "HgN/A
1:20 PM32 °FChilly.6 mph75%30.30 "HgN/A
12:20 PM32 °FChilly.5 mph75%30.33 "HgN/A
11:20 AM30 °FChilly.2 mph86%30.33 "HgN/A
10:20 AM28 °FChilly.No wind93%30.36 "HgN/A
9:20 AM27 °FChilly.No wind100%30.36 "HgN/A
8:20 AM27 °FChilly.No wind93%30.36 "HgN/A
7:20 AM27 °FChilly.No wind93%30.33 "HgN/A
6:20 AM25 °FCold.No wind100%30.33 "HgN/A
5:20 AM23 °FCold.No wind93%30.33 "HgN/A
4:20 AM23 °FCold.No wind100%30.33 "HgN/A
3:20 AM27 °FChilly.No wind93%30.33 "HgN/A
2:20 AM27 °FChilly.No wind93%30.30 "HgN/A
1:20 AM28 °FChilly.No wind86%30.30 "HgN/A
12:20 AM28 °FChilly.No wind93%30.30 "HgN/A
11:20 PM
Dec 25
30 °FChilly.No wind86%30.27 "HgN/A
10:20 PM32 °FChilly.No wind80%30.27 "HgN/A
9:20 PM32 °FChilly.8 mph87%30.24 "HgN/A
8:20 PM32 °FChilly.10 mph87%30.21 "HgN/A
7:20 PM34 °FChilly.9 mph87%30.18 "HgN/A
6:20 PM34 °FChilly.7 mph87%30.15 "HgN/A
5:20 PM34 °FChilly.13 mph87%30.12 "HgN/A
4:20 PM34 °FChilly.12 mph93%30.07 "HgN/A
Weather by CustomWeather, © 2014

See weather overviewHow to use our weather pages